Orbital Elements at Epoch 2459000.5 (2020-May-31.0) TDB
Reference: JPL 15 (heliocentric ecliptic J2000)
Element | Value | Uncertainty (1-sigma) | Units |
e | .1357990733770908 | 4.7913e-08 | |
a | 2.248959612790691 | 8.344e-09 | au |
q | 1.943552981311214 | 1.0658e-07 | au |
i | 5.685237324544402 | 4.6182e-06 | deg |
node | 62.4930838797074 | 4.0863e-05 | deg |
peri | 317.4144066799438 | 4.315e-05 | deg |
M | 332.1290365082157 | 1.2991e-05 | deg |
tp | 2459095.871890850161 (2020-Sep-03.37189085) | 4.4491e-05 | TDB |
period | 1231.887111336455 3.37 | 6.8558e-06 1.877e-08 | d yr |
n | .2922345697808638 | 1.6264e-09 | deg/d |
Q | 2.554366244270168 | 9.4772e-09 | au |
|
| | Orbit Determination Parameters
Additional Information
|